www.pogodaiklimat.ru

Погода и климат >> Архив погоды >> Пакистан >> Sargodha


ПОГОДА в Sargodha

  • Прогноз погоды в Sargodha
  • Монитор погоды в Sargodha
  • Климат города

АРХИВ ПОГОДЫ в Sargodha

Время (UTC), дата Ветер
(напр.,м/с)
 
Видим.   Явления Облачность Т
(С)
Тd
(С)
f
(%)
Тe
(С)
Тes
(С)
Комфортность P
(гПа)
Po
(гПа)
Тmin
(С)
Tmax
(С)
R
(мм)
R24
(мм)
S
(см)
03 14.06 ЮЗ 7 2000 м пыль 1/0
[Ac trans]
+33.0 +23.0 56 +43 +45 опасность
перегрева
991.7 971.0 +28.5
06 14.06 Ю 7 2000 м пыль ясно +36.5 +22.7 45 +46 +51 опасность
перегрева
991.7 971.9
09 14.06 Ю 7 2000 м пыль ясно +39.5 +22.2 37 +47 +52 опасность
перегрева
990.3 970.7
12 14.06 Ю 8 2000 м пыль ясно +39.5 +22.2 37 +47 +48 опасность
перегрева
988.6 969.0 +40.5
15 14.06 Ю 7 н/о пыль ясно +35.5 +22.4 47 +45 +45 опасность
перегрева
989.6 969.7
18 14.06 ЮВ 4 н/о мгла ясно +33.5 +23.3 55 +44 +44 опасность
перегрева
991.4 971.4
21 14.06 ЮВ 4 н/о мгла ясно +33.0 +23.0 56 +43 +43 опасность
перегрева
990.7 970.6
00 15.06 СВ 3 1000 м пыль ясно +32.0 +23.4 60 +43 +43 опасность
перегрева
991.4 971.6
03 15.06 Ю 8 1000 м пыль ясно +33.0 +21.3 50 +41 +42 опасность
перегрева
993.4 973.2 +30.5
06 15.06 Ю 8 1000 м пыль ясно +35.0 +21.1 44 +42 +45 опасность
перегрева
993.7 973.7
09 15.06 ЮВ 4 1000 м мгла 5/3
[Sc diur, vesp Ac trans]
+37.0 +21.0 40 +44 +52 опасность
перегрева
992.0 972.9
12 15.06 ЮВ 5 1000 м пыль 9/5 1000 м
[Cu Sc Ac trans]
+35.5 +22.4 47 +45 +45 опасность
перегрева
992.0 972.1 +37.5
15 15.06 ЮВ 5 н/о пыль 9/5 1000 м
[Cu Sc Ac trans]
+34.0 +21.6 48 +42 +42 опасность
перегрева
994.0 974.0
18 15.06 СВ 8 н/о пыль 8/4 1000 м
[Sc diur, vesp Ac trans]
+30.0 +19.4 53 +36 +36 очень
душно
995.6 975.2
21 15.06 СВ 8 н/о мгла 8/4 1000 м
[Sc diur, vesp Ac trans]
+30.0 +19.4 53 +36 +36 очень
душно
995.1 974.7
00 16.06 СВ 7 4000 м мгла 9/4 1000 м
[Sc diur, vesp Ac trans]
+29.5 +17.5 48 +34 +34 очень
душно
995.8 975.3
03 16.06 СВ 7 4000 м мгла 9/4 1000 м
[Sc Ac trans]
+30.0 +16.6 44 +33 +34 душно 996.9 976.5 +29.0
06 16.06 СВ 8 4000 м мгла 9/5 1000 м
[Sc Ac trans]
+32.5 +19.5 46 +38 +39 очень
душно
997.2 977.0
12 16.06 СВ 7 1000 м пыль 9/4 1000 м
[Sc Ac trans]
+33.0 +23.0 56 +43 +44 опасность
перегрева
994.7 974.5 +34.5
21 16.06 В 5 <100 м гроза без осадков {дождь} 9/6 1000 м
[Cb cap Ac trans]
+26.5 +19.3 65 +32 +32 очень
душно
996.9 976.2 0.0
00 17.06 СВ 5 2000 м гроза, ливневой дождь 9/6 1000 м
[Cb cap Ac trans]
+21.0 +19.4 91 +26 +26 душно 1000.0 978.8 50
03 17.06 ЮЗ 8 4000 м гроза без осадков {дождь} 9/6 1000 м
[Cb cap Ac trans]
+23.5 +20.2 82 +29 +29 душно 999.0 977.9 +20.5
06 17.06 С 5 4000 м гроза без осадков {дождь} 9/5 1000 м
[Cb cap Ac trans]
+24.0 +21.0 83 +30 +33 очень
душно
1000.3 973.9 1
09 17.06 СВ 5 4000 м мгла {гроза} 9/4 1000 м
[Sc diur, vesp Ac trans]
+29.0 +19.9 58 +35 +38 очень
душно
1000.3 979.7
12 17.06 В 5 10 км 6/3 1000 м
[Sc diur, vesp Ac trans]
+29.5 +20.3 58 +36 +37 очень
душно
998.9 978.3 +31.0 2
15 17.06 СЗ 1 <100 м мгла 8/4 1000 м
[Sc diur, vesp Ac trans]
+27.0 +21.0 70 +34 +34 очень
душно
1000.6 979.9
18 17.06 СВ 6 н/о мгла 5/1 1000 м
[Sc diur, vesp Ac trans]
+26.0 +21.5 76 +33 +33 очень
душно
1000.3 979.5
21 17.06 СВ 5 н/о мгла 5/1 1000 м
[Sc diur, vesp Ac trans]
+25.5 +22.3 82 +33 +33 очень
душно
998.9 978.0
00 18.06 Ю 1 4000 м мгла 9/4 1000 м
[Sc diur, vesp Ac trans]
+25.0 +21.3 80 +32 +32 очень
душно
999.7 978.8
03 18.06 ЮЗ 4 2000 м гроза без осадков 9/6 1000 м
[Cb cap Ac trans]
+27.0 +21.0 70 +34 +35 очень
душно
1000.9 980.2 +23.5 2
09 18.06 ЮВ 5 4000 м мгла 5/3 1000 м
[Sc diur, vesp Ac trans]
+33.0 +19.5 45 +39 +44 очень
душно
999.9 979.6
12 18.06 В 4 4000 м мгла {гроза} 5/3 1000 м
[Sc Ac trans]
+33.0 +20.4 48 +40 +42 очень
душно
998.4 978.1 +34.0
15 18.06 ЮВ 2 н/о мгла 6/3 1000 м
[Sc diur, vesp Ac trans]
+30.0 +21.1 59 +38 +38 очень
душно
999.3 978.8
18 18.06 штиль 0 50 км мгла ?/? +28.0 +21.3 67 +35 +35 очень
душно
1000.4 979.7
21 18.06 ЮЗ 2 н/о мгла 3/0
[Ac trans]
+26.0 +21.5 76 +33 +33 очень
душно
999.6 978.8
00 19.06 штиль 0 4000 м мгла 1/0
[Ci fib]
+25.0 +21.3 80 +32 +32 очень
душно
1000.3 979.3
03 19.06 ЮЗ 2 4000 м мгла ясно +30.0 +22.8 65 +40 +47 очень
душно
1000.9 980.4 +24.0
06 19.06 ЮЗ 3 4000 м мгла ясно +34.0 +22.5 51 +43 +60 опасность
перегрева
1000.3 980.1
09 19.06 ЮЗ 2 10 км мгла 3/1 1000 м
[Sc diur, vesp Ac trans]
+37.0 +21.0 40 +44 +59 опасность
перегрева
998.4 978.5
12 19.06 Ю 2 10 км 1/0
[Ac trans]
+37.0 +21.0 40 +44 +48 опасность
перегрева
996.7 976.9 +37.5
15 19.06 Ю 3 н/о мгла 3/0
[Ac trans]
+33.0 +23.0 56 +43 +43 опасность
перегрева
997.1 976.9
18 19.06 ЮВ 1 <100 м мгла 3/0
[Ac trans]
+31.0 +23.1 63 +41 +41 опасность
перегрева
998.5 978.1
21 19.06 ЮВ 2 <100 м мгла 5/0
[Ac trans]
+30.5 +23.9 68 +42 +42 опасность
перегрева
998.8 978.3
00 20.06 Ю 1 4000 м мгла 8/0
[Ac trans Ci fib]
+29.0 +23.8 74 +40 +40 очень
душно
1000.0 979.4
03 20.06 Ю 1 4000 м мгла 9/3 1000 м
[Sc diur, vesp Ac trans]
+32.0 +23.4 60 +43 +45 опасность
перегрева
1001.7 981.4 +28.1
06 20.06 ЮЗ 3 4000 м мгла 5/3 1000 м
[Sc diur, vesp Ac trans]
+36.0 +22.4 46 +45 +55 опасность
перегрева
1001.1 981.1
09 20.06 В 6 4000 м мгла 9/5 1000 м
[Cb calv Ac trans]
+39.0 +20.8 35 +45 +47 опасность
перегрева
999.0 979.2
12 20.06 З 10 2000 м гроза, ливневой дождь 9/6 1000 м
[Cb cap Ac As]
+23.0 +21.5 91 +31 +31 очень
душно
1005.7 984.5 +39.5 11
18 20.06 ЮЗ 2 н/о мгла {гроза, дождь} 8/4 1000 м
[Sc diur, vesp Ac trans]
+24.0 +20.2 79 +30 +30 очень
душно
1002.0 981.0 11

 

Местоположение метеостанции Sargodha (Пакистан): широта 32.05 долгота 72.67 высота над уровнем моря 188 м.

В архиве по умолчанию представлена погода в Sargodha за последнюю неделю. Архивные данные за месяц целиком и за предыдущие месяцы, начиная с января 2011 года, Вы можете получить, выбрав интересующий диапазон дат из раскрывающегося списка и нажав кнопку "Ввод!".


*Определитесь, кто Вы:
робот инопланетянин человек

Внимание! Время в таблицах - всемирное. Для получения местного времени необходимо прибавить поправку, которая в Sargodha равна 5 ч.

Смотрите также архив погоды в соседних городах и на ближайших метеорологических станциях:

Погода в Faisal Abad (Пакистан) (80 км)
Погода в Mianwali (Пакистан) (122 км)
Погода в Jhelum (Пакистан) (139 км)
Погода в Raifiqui Airbase (Пакистан) (148 км)
Погода в Lahore City (Пакистан) (166 км)
Погода в Dera Ismail Khan (Пакистан) (167 км)
Погода в Islamabad (Пакистан) (179 км)
Погода в Sialkot (Пакистан) (182 км)
Погода в Kohat (Пакистан) (205 км)
Погода в Amritsar (Punjab, Индия) (213 км)

Пояснения к столбцам:

Ветер - указаны скорость ветра в м/с - средняя за 10 мин, порывы в срок и между сроками (в фигурных скобках) и направление, откуда дует ветер: С - северный, СВ - северо-восточный, В - восточный, ЮВ - юго-восточный, Ю - южный, ЮЗ - юго-западный, З - западный, СЗ - северо-западный.
Видимость - горизонтальная дальность видимости в метрах или километрах. При видимости от 1 до 10 км при отсутствии осадков обычно наблюдается дымка, при ухудшении видимости до 1 км и менее - туман. В сухую погоду видимость может ухудшаться дымом, пылью или мглою.
Явления - указаны атмосферные явления, наблюдавшиеся в срок или в последний час перед сроком; фигурными скобками обозначены явления, наблюдавшиеся между сроками (за 1-3 часа до срока); квадратными скобками обозначены град или гололедные отложения с указанием их диаметра в мм.
Облачность - указаны через наклонную черту общая и нижняя облачность в баллах и высота нижней границы облаков в метрах; квадратными скобками обозначены формы облаков: Ci - перистые, Cs - перисто-слоистые, Cc - перисто-кучевые, Ac - высококучевые, As - высокослоистые, Sc - слоисто-кучевые, Ns - слоисто-дождевые, Cu - кучевые, Cb - кучево-дождевые. Подробнее классификацию облаков см. в Атласе облаков (PDF).
T - Температура воздуха - температура, измеренная на высоте 2 м над землей.
Td - Температура точки росы - температура, при понижении до которой содержащийся в воздухе водяной пар достигнет насыщения.
f - Относительная влажность воздуха - влажноcть воздуха, измеренная на высоте 2 м над землей.
Te - Эффективная температура - температура, которую ощущает одетый по сезону человек в тени. Характеристика душности погоды. При расчете учитывается влияние влажности воздуха и скорости ветра на теплоощущения человека.
Tes - Эффективная температура на солнце - температура, которую ощущает человек, с поправкой на солнечный нагрев. Характеристика знойности погоды. Зависит от высоты солнца над горизонтом, облачности и скорости ветра. Ночью, в пасмурную погоду, а также при ветре 12 м/с и более поправка равна нулю.
P - Атмосферное давление - приведенное к уровню моря атмосферное давление.
Po - Атмосферное давление - измеренное на уровне метеостанции атмосферное давление.
Tmin - Минимальная температура - минимум температуры воздуха на высоте 2 м над землей.
Tmax - Максимальная температура - максимум температуры воздуха на высоте 2 м над землей.
R - Количество осадков - Количество выпавших осадков за период времени, мм. При наведении курсора мыши на число - период времени, за который выпало указанное количество осадков.
R24 - Количество осадков - Количество выпавших осадков за 24 часа, мм.
S - Снежный покров - Высота снежного покрова, см. При наведении курсора мыши на число - состояние снежного покрова и степень покрытия местности в баллах.